Location: Ripley
(48.3812°N, 115.4473°W)
Time: 00:22:25
(UTC+00:00)

VELOX 1 - Visible Passes

Search period start: 30 June 2022 00:00
Search period end: 10 July 2022 00:00
Orbit: 625 x 638 km, 98.4° (Epoch: 24 June)

Date Brightness Start Highest point End Pass type
(mag) Time Alt. Az. Time Alt. Az. Time Alt. Az.
30 Jun ? 10:37:10 10° E 10:39:40 15° ENE 10:42:11 10° NNE visible
01 Jul ? 10:56:57 10° ESE 11:00:20 22° ENE 11:03:43 10° NNE visible
04 Jul ? 10:25:35 10° ENE 10:27:07 12° NE 10:28:38 10° NE visible
05 Jul ? 10:44:51 10° E 10:47:43 17° ENE 10:50:35 10° NNE visible
06 Jul ? 11:04:47 10° ESE 11:08:23 25° ENE 11:12:00 10° N visible
09 Jul ? 10:32:58 10° E 10:35:05 13° NE 10:37:11 10° NNE visible
